Hourly Weather Roundup
Issued by NWS Central Illinois

Home | Current Version | Previous Version | Text Only | Print | Product List | Glossary On
Versions: 1 2 3 4 5 6 7 8 9 10 11 12 13 14 15 16 17 18 19 20 21 22 23 24 25 26 27 28 29 30 31 32 33 34 35 36 37 38 39 40 41 42 43 44 45 46 47 48 49 50
000
NZUS43 KILX 290010
HWRILX

AREA WEATHER ROUNDUP
NATIONAL WEATHER SERVICE, LINCOLN IL
700 PM CDT TUE MAR 28 2017


CITY           SKY/WX    TMP DP  RH WIND       PRES   REMARKS
BLOOMINGTON    CLOUDY    47  42  83 NE14      30.15R
6HR MIN TEMP:  47; 6HR MAX TEMP:  52;

CHAMPAIGN      CLOUDY    50  41  71 NE12      30.13R
6HR MIN TEMP:  50; 6HR MAX TEMP:  58;

DECATUR        CLOUDY    53  44  71 N13       30.11R
6HR MIN TEMP:  53; 6HR MAX TEMP:  57;

EFFINGHAM      CLOUDY    57  48  73 N8        30.10S
6HR MIN TEMP:  57; 6HR MAX TEMP:  60;

FLORA          MOCLDY    61  49  65 NE7       30.07R
6HR MIN TEMP:  58; 6HR MAX TEMP:  64;

GALESBURG      CLOUDY    49  43  80 NE8       30.14R
6HR MIN TEMP:  49; 6HR MAX TEMP:  52;

JACKSONVILLE   CLOUDY    52  47  81 NE9       30.11S
6HR MIN TEMP:  52; 6HR MAX TEMP:  55;

LACON          CLOUDY    47  41  79 NE7       30.15R
6HR MIN TEMP:  47; 6HR MAX TEMP:  52;

LAWRENCEVILLE  CLOUDY    60  53  77 NE5       30.08R
6HR MIN TEMP:  59; 6HR MAX TEMP:  62;

LITCHFIELD     CLOUDY    54  47  77 NE9       30.09S
6HR MIN TEMP:  54; 6HR MAX TEMP:  55;

$$


CITY           SKY/WX    TMP DP  RH WIND       PRES   REMARKS
LINCOLN        CLOUDY    53  47  79 N7        30.13R
6HR MIN TEMP:  53; 6HR MAX TEMP:  54;

MACOMB         CLOUDY    51  46  86 E8        30.14S
6HR MIN TEMP:  50; 6HR MAX TEMP:  53;

MATTOON        CLOUDY    55  46  71 NE12      30.10R
6HR MIN TEMP:  55; 6HR MAX TEMP:  58;

MT CARMEL AP   CLOUDY    60  49  66 N3        30.07R
6HR MIN TEMP:  59; 6HR MAX TEMP:  64;

OLNEY-NOBLE AP CLOUDY    59  52  77 N8        30.08S
PARIS          CLOUDY    52  45  78 N8        30.12R
6HR MIN TEMP:  52; 6HR MAX TEMP:  58;

PEORIA         CLOUDY    50  43  77 NE8       30.14R
6HR MIN TEMP:  50; 6HR MAX TEMP:  54;

PONTIAC        CLOUDY    47  44  87 NE6       30.16R
6HR MIN TEMP:  47; 6HR MAX TEMP:  52;

RANTOUL        CLOUDY    49  42  77 NE15      30.14R
6HR MIN TEMP:  49; 6HR MAX TEMP:  56;

SPRINGFIELD    CLOUDY    54  46  74 NE8       30.12R
6HR MIN TEMP:  54; 6HR MAX TEMP:  57;

TAYLORVILLE    CLOUDY    54  46  76 N9        30.11R
$$

...REGIONAL REPORTS...


CITY           SKY/WX    TMP DP  RH WIND       PRES   REMARKS
CHICAGO O`HARE MOCLDY    43  36  76 NE9       30.17R
KANKAKEE       CLOUDY    43  37  80 NE12      30.17S
MOLINE         CLOUDY    50  40  68 E14       30.14R
MOUNT STERLING CLOUDY    52  47  83 NE8       30.10S
MOUNT VERNON   MOCLDY    60  49  66 NE8       30.07R
PITTSFIELD     CLOUDY    54  48  80 NE7       30.10F
QUINCY         CLOUDY    52  48  86 E9        30.08F
ROCKFORD       PTCLDY    53  39  59 SE8       30.16R
$$


CITY           SKY/WX    TMP DP  RH WIND       PRES   REMARKS
BURLINGTON     CLOUDY    51  47  86 E6        30.12R
CEDAR RAPIDS   CLOUDY    50  43  77 E9        30.12R
DES MOINES     CLOUDY    52  42  69 NE9       30.10S
KIRKSVILLE     CLOUDY    52  47  83 E9        30.09R
OTTUMWA        CLOUDY    51  46  83 E12       30.10S
ST LOUIS       CLOUDY    58  47  66 NE8       30.08R
$$


CITY           SKY/WX    TMP DP  RH WIND       PRES   REMARKS
TERRE HAUTE    CLOUDY    56  45  66 N7        30.10R
EVANSVILLE     PTCLDY    59  50  72 CALM      30.07R
INDIANAPOLIS   CLOUDY    53  45  74 N10       30.10R
LAFAYETTE      CLOUDY    47  41  80 NE6       30.13R
MADISON        PTCLDY    52  36  54 NE8       30.15R
MILWAUKEE      FOG       35  33  92 N8        30.19S VSB 1/4 WCI  29
$$





USA.gov is the U.S. government's official web portal to all federal, state and local government web resources and services.